User: anonymous   Login
Location: Ertinghausen
(51.6624°N, 9.7874°E)
Time: 08:46:48
(UTC+00:00)
Language:

Nimbus 7 Rocket - Orbit

View from above orbital plane
View from above orbital plane
View from above satellite
View from above satellite

Ground track
Ground track

The orbit data is extracted from the following two-line orbital elements,

1 11081U 78098B   24198.21468700  .00000064  00000-0  94796-4 0  9994
2 11081  99.3759 120.4028 0028192 225.2885 134.5975 13.85911354150927
Epoch (UTC): 16 July 2024 05:09:08
Eccentricity: 0.0028192
inclination: 99.3759°
perigee height: 922 km
apogee height: 963 km
right ascension of ascending node: 120.4028°
argument of perigee: 225.2885°
revolutions per day: 13.85911354
mean anomaly at epoch: 134.5975°
orbit number at epoch: 15092

The dashed part of the orbit path shows where the satellite is in the earth's shadow,  

DLR